This demonstration page uses our WeatherBlox Daily Observations layout. Learn more.

Left ArrowRight Arrow

36.17497, -115.13722

Hourly Observations for July 22, 2017

Temp ( °F °C ) Dew Point ( °F °C ) Humidity (%) Winds ( mph kmh ) Pressure ( in mb ) Visibility ( mi km ) Precip ( " mm )
12:53 am 00:53 Clear 92 33.3 39 3.9 16 16 SW 5 7 29.80 1009 10 16 N/A
1:53 am 01:53 Clear 89 31.7 41 5 19 19 NW 5 7 29.81 1009 10 16 N/A
2:53 am 02:53 Clear 85 29.4 47 8.3 27 27 NNW 6 9 29.82 1010 10 16 N/A
3:53 am 03:53 Clear 86 30 44 6.7 23 23 N 8 13 29.82 1010 10 16 N/A
4:53 am 04:53 Clear 84 28.9 45 7.2 25 25 N 6 9 29.84 1010 10 16 N/A
5:53 am 05:53 Sunny 84 28.9 43 6.1 24 24 NNW 5 7 29.84 1011 10 16 N/A
6:53 am 06:53 Sunny 87 30.6 45 7.2 23 23 N 3 6 29.86 1011 10 16 N/A
7:53 am 07:53 Sunny 91 32.8 47 8.3 22 22 ENE 5 7 29.88 1012 10 16 N/A
8:53 am 08:53 Sunny 92 33.3 47 8.3 21 21 ESE 5 7 29.89 1012 10 16 N/A
9:53 am 09:53 Sunny 95 35 44 6.7 17 17 ESE 6 9 29.89 1012 10 16 N/A
10:53 am 10:53 Sunny 98 36.7 43 6.1 15 15 ESE 7 11 29.88 1012 10 16 N/A
11:53 am 11:53 Sunny 100 37.8 39 3.9 12 12 SSE 7 11 29.87 1012 10 16 N/A
12:53 pm 12:53 Sunny 103 39.4 43 6.1 13 13 S 9 15 29.85 1011 10 16 N/A
1:53 pm 13:53 Sunny 105 40.6 42 5.6 12 12 SSW 6 9 29.82 1010 10 16 N/A
2:53 pm 14:53 Sunny 106 41.1 47 8.3 14 14 VRB 5 7 29.80 1009 10 16 N/A
3:53 pm 15:53 Sunny 105 40.6 48 8.9 15 15 S 5 7 29.76 1008 10 16 N/A
4:53 pm 16:53 Sunny 106 41.1 47 8.3 14 14 SSE 6 9 29.73 1007 10 16 N/A
5:53 pm 17:53 Sunny 106 41.1 45 7.2 13 13 SSE 7 11 29.73 1007 10 16 N/A
6:53 pm 18:53 Sunny 106 41.1 46 7.8 13 13 SE 6 9 29.72 1007 10 16 N/A
7:53 pm 19:53 Sunny 104 40 46 7.8 14 14 SE 5 7 29.73 1007 10 16 N/A
8:53 pm 20:53 Clear 101 38.3 46 7.8 15 15 E 5 7 29.75 1007 10 16 N/A
9:53 pm 21:53 Clear 99 37.2 47 8.3 17 17 ESE 6 9 29.76 1008 10 16 N/A
10:53 pm 22:53 Clear 99 37.2 44 6.7 15 15 E 10 17 29.78 1008 10 16 N/A
11:53 pm 23:53 Clear 96 35.6 47 8.3 19 19 ESE 9 15 29.80 1009 10 16 N/A

Powered by AerisWeather